カタログに戻る

STARLINK-6309

運用中通信VLEO
NORAD 56535·PAYLOAD·🇺🇸 United States

打ち上げ May 14, 2023 から Cape Canaveral Space Force Station

Loading…

次のパス (今後24時間)

TLE

最新Source: CelesTrak SupGP

元期: Sep 15, 2026, 03:11 UTC

1 56535C 23065AJ  26258.13312500 -.00021193  00000+0 -76777-3 0  2580
2 56535  42.9991 236.7699 0001347 263.1255 297.1627 15.27582105    12

AllMySatでSTARLINK-6309をリアルタイム追跡

Download on the App Store